sat.trackr.live / text

‹ back to catalog

STARLINK-32322

NORAD 61720 · 2024-196P

PAYLOAD ACTIVE UNKNOWN

§ Identity

Operator
Country
US
Launch date
2024-10-30
Launch site
AFETR
Launch vehicle
Mass (kg)
RCS (m²)

Purposes: comms

External: N2YO · Heavens-Above · Gunter

§ Orbital elements

Epoch: 2026-05-25T04:23:19.649184Z

Period
94.11 min
Inclination
53.1602°
Eccentricity
0.0001479
Mean motion
15.30193318 rev/d
Perigee alt
474.2 km
Apogee alt
476.2 km
Semi-major
6,853.4 km
B*
1.0831e-4
RAAN
106.3500°
Arg perigee
103.4756°
Mean anomaly
256.6410°
Rev number
8,886

§ Raw data

STARLINK-323221 61720U 24196P   26145.18286631  .00002849  00000+0  10831-3 0  99992 61720  53.1602 106.3500 0001479 103.4756 256.6410 15.30193318 88865

JSON: /api/v1/satellites/61720 · /tle

For live sub-satellite position, see the globe view (requires WebGL).

§ Visibility from observer

Set your observer location to see the next 7 days of passes ≥ 10°. The values pass through the URL so the page stays shareable.

No JS? Fill the form by hand. The geolocation button needs JavaScript.